Lyra-1

operational
NORAD ID: 62664 Int'l Des: 2025-009 Owner: ECHOAU Country: AU
LEOCIRCULARRETROGRADESSO

About Lyra-1

Description loading...

Live Position

Loading 3D Globe...

Upcoming Passes

Altitude History

Altitude vs Time

uPlot chart will show altitude changes over time

Two-Line Element Set

1 62664U 25009BH 25312.22517987 .00016758 00000-0 93374-3 0 9990
2 62664 97.4233 26.9229 0009065 236.6407 123.3957 15.13639133 44937
Epoch: Nov 8, 2025 • Age: 48 hours

Current Status

Altitude 534.8 km
Velocity 7.59 km/s
Sub-Earth Point -19.95°S, 91.75°W
Launch Date Jan 14, 2025
Age 0.8 years
Type other

Technical Details

Classification Payload
Mass 74.00 kg
Dry Mass 74.00 kg
Total Mass 74.00 kg
Length 0.60 m
Diameter 0.50 m
Span 2.00 m
Shape Box
Manufacturer ADIG
Bus Type Corvus XL
Phase Status In Orbit
Owner/State ECHOAU/AU

Large Constellations

Loading constellations...